Temp
18 17 15 14 13 12 11 9 8 8 8 8 8 7 7 7 7 9 9 9 9 9 8 9 9 9 9 9 8 8 9 9
17 15 15 14 13 12 10 9 8 8 7 7 7 7 7 7 8 8 9 8 7 8 8 8 8 8 8 8 7 7 8 8
15 15 14 13 12 11 10 10 9 8 8 7 7 7 6 7 7 7 7 7 7 7 7 7 7 7 7 7 7 5 6 7
15 14 14 13 12 10 10 10 9 7 6 6 5 5 5 5 6 6 6 6 7 6 6 6 6 6 6 6 5 4 4 4
14 13 13 12 12 10 10 9 8 6 6 7 6 7 6 4 5 5 6 6 6 6 5 5 6 5 5 4 5 4 3 3
14 13 13 12 11 10 9 8 7 6 7 7 7 6 5 5 4 5 5 5 5 5 5 5 5 4 5 4 4 3 3 3
14 13 12 11 10 9 8 8 7 7 7 7 6 5 5 5 5 5 5 5 5 5 5 4 4 4 4 3 3 2 1 2
12 12 11 10 9 9 8 8 7 7 6 5 5 5 6 6 5 5 5 4 4 4 4 4 4 3 3 2 2 1 -0 -1
12 12 11 10 9 8 8 7 7 6 6 5 5 5 5 5 5 4 3 4 3 3 3 3 3 2 2 1 0 0 -1 -2
12 11 11 10 9 8 8 8 6 6 6 5 5 4 4 4 5 3 3 3 3 4 3 3 2 1 0 -0 -0 -0 -1 -1
13 12 11 10 10 9 8 7 6 6 5 5 4 4 4 3 4 3 2 2 3 3 2 1 1 0 0 -0 -1 -2 -1 -1
12 11 11 10 10 9 8 7 6 5 5 4 3 3 3 3 3 3 3 3 3 2 2 1 1 0 0 -1 -2 -2 -2 -1
12 12 11 11 10 9 8 7 6 5 5 4 3 2 2 2 2 2 2 2 2 1 1 0 0 -0 -1 -1 -2 -2 -2 -1
12 12 11 11 10 9 8 7 6 5 4 4 3 2 3 2 2 1 1 1 1 -0 -0 -0 -0 -0 -1 -1 -2 -2 -2 -1
12 11 11 11 10 9 9 7 6 5 4 4 3 2 1 1 0 2 0 -0 -0 -1 -1 -1 -1 -1 -2 -1 -1 -2 -2 -2
11 12 12 11 9 9 8 6 5 5 4 3 3 2 1 0 -1 0 -1 -1 -1 -1 -1 -1 -2 -2 -2 -2 -2 -1 -1 -2
9 10 10 10 10 8 7 6 5 4 4 3 2 1 0 -1 -1 -1 -2 -2 -2 -2 -2 -2 -1 -2 -2 -2 -2 -1 -1 -1
7 7 6 8 8 7 7 5 4 4 3 2 2 1 -0 -1 -1 -2 -3 -3 -3 -3 -3 -2 -2 -2 -2 -1 -2 -2 -2 -2
5 5 6 8 8 7 6 5 4 3 2 2 1 -0 -1 -2 -2 -3 -3 -3 -3 -2 -2 -2 -2 -2 -2 -1 -2 -2 -2 -2
Height
1460 1465 1470 1477 1484 1490 1495 1500 1503 1504 1505 1506 1507 1507 1508 1510 1509 1508 1510 1511 1512 1513 1513 1512 1511 1511 1512 1512 1513 1512 1512 1512
1459 1463 1467 1472 1477 1483 1489 1496 1500 1502 1504 1505 1505 1505 1506 1508 1509 1509 1509 1509 1509 1511 1511 1509 1509 1509 1510 1511 1511 1510 1510 1510
1455 1457 1462 1468 1473 1479 1485 1491 1495 1499 1502 1503 1503 1504 1505 1507 1507 1508 1508 1508 1508 1508 1509 1508 1507 1508 1508 1508 1509 1507 1507 1508
1448 1452 1456 1462 1469 1475 1481 1486 1492 1497 1499 1501 1502 1503 1504 1505 1505 1506 1506 1506 1507 1507 1508 1508 1506 1507 1507 1506 1506 1505 1505 1505
1441 1447 1454 1458 1464 1472 1478 1483 1489 1493 1496 1498 1500 1501 1502 1503 1505 1505 1505 1505 1506 1506 1507 1506 1506 1506 1505 1504 1504 1503 1503 1503
1438 1445 1451 1458 1464 1470 1476 1482 1487 1491 1495 1498 1499 1500 1500 1500 1502 1504 1503 1503 1504 1505 1506 1505 1505 1505 1504 1504 1503 1503 1502 1501
1440 1446 1451 1458 1463 1469 1475 1479 1485 1489 1491 1495 1496 1496 1496 1499 1501 1502 1501 1501 1503 1504 1504 1504 1504 1503 1503 1504 1503 1503 1502 1502
1441 1445 1451 1456 1460 1467 1472 1476 1481 1486 1488 1491 1493 1494 1496 1496 1497 1499 1499 1500 1501 1501 1502 1502 1502 1502 1503 1503 1502 1503 1504 1502
1446 1448 1450 1455 1459 1464 1470 1474 1478 1480 1485 1487 1489 1490 1490 1491 1492 1495 1497 1497 1499 1500 1501 1500 1500 1501 1503 1503 1502 1503 1504 1504
1452 1454 1455 1456 1460 1464 1468 1472 1475 1477 1480 1483 1486 1488 1489 1488 1488 1491 1494 1495 1496 1498 1499 1499 1499 1500 1502 1503 1503 1504 1504 1504
1455 1459 1461 1462 1460 1461 1468 1469 1472 1475 1478 1481 1482 1484 1484 1485 1486 1488 1491 1492 1493 1495 1496 1497 1498 1499 1500 1502 1504 1504 1503 1504
1461 1461 1463 1465 1466 1463 1465 1466 1468 1470 1473 1476 1480 1479 1481 1483 1484 1486 1487 1489 1490 1492 1493 1495 1496 1498 1499 1502 1505 1504 1503 1504
1456 1457 1457 1459 1460 1458 1459 1461 1461 1462 1466 1472 1475 1476 1478 1481 1482 1483 1485 1486 1488 1490 1491 1493 1495 1497 1499 1501 1503 1503 1504 1504
1445 1445 1447 1447 1449 1454 1458 1455 1453 1456 1460 1465 1470 1471 1471 1476 1478 1481 1482 1483 1485 1487 1489 1492 1493 1495 1498 1500 1501 1502 1503 1503
1438 1439 1440 1440 1441 1444 1441 1450 1450 1450 1449 1458 1463 1467 1470 1473 1475 1475 1479 1481 1482 1485 1487 1490 1492 1495 1497 1498 1500 1501 1502 1503
1435 1432 1431 1430 1436 1436 1439 1443 1445 1445 1446 1451 1456 1463 1466 1470 1473 1473 1476 1478 1480 1483 1485 1488 1491 1493 1494 1496 1498 1499 1500 1502
1430 1429 1426 1425 1425 1430 1432 1435 1439 1441 1442 1446 1452 1458 1462 1466 1468 1470 1473 1475 1477 1480 1483 1486 1488 1491 1493 1495 1496 1497 1499 1501
1424 1423 1424 1420 1421 1427 1428 1431 1435 1437 1439 1443 1448 1453 1457 1461 1465 1467 1469 1472 1475 1478 1481 1484 1487 1489 1491 1493 1495 1497 1499 1500
1426 1420 1421 1420 1419 1420 1425 1428 1431 1434 1436 1440 1444 1449 1453 1457 1461 1464 1467 1469 1472 1474 1478 1482 1485 1487 1489 1491 1494 1495 1497 1499
Wind_Speed
41 36 32 26 22 21 19 19 20 20 18 16 15 15 14 10 8 8 8 8 7 6 5 5 4 2 1 1 1 2 4 1
39 35 30 27 26 24 23 21 21 21 21 17 17 17 14 10 8 7 8 8 8 5 4 4 2 1 0 0 1 3 5 2
40 38 34 31 30 26 24 22 22 19 16 13 14 14 12 9 8 8 7 7 7 6 4 4 3 1 1 1 2 4 4 4
46 43 39 34 31 30 25 21 18 17 16 16 19 14 10 9 8 7 7 6 5 5 4 4 3 2 1 0 1 4 2 1
48 45 40 36 31 26 22 20 18 21 21 21 20 14 14 11 9 4 5 5 5 4 4 3 1 0 0 1 1 1 2 2
48 44 39 33 28 25 21 19 22 20 24 22 19 16 15 14 10 6 6 4 4 3 3 2 1 1 0 1 1 1 0 2
42 40 37 30 24 23 24 22 23 23 21 19 18 16 21 17 12 10 7 6 5 6 4 3 2 1 1 2 3 4 4 4
37 36 32 26 25 25 26 25 26 25 24 20 22 20 19 17 15 12 8 7 7 6 5 4 4 3 3 5 6 8 8 7
29 28 26 23 28 30 30 27 26 26 25 26 24 24 22 16 13 12 12 10 7 6 5 5 6 6 7 8 9 10 11 11
23 25 22 23 28 31 29 26 28 27 25 27 27 25 23 20 15 18 17 13 10 9 8 8 9 9 9 9 9 9 10 11
11 17 18 23 26 29 24 21 28 27 24 26 26 26 25 23 21 21 20 16 13 11 10 11 11 11 11 9 10 10 9 11
5 9 13 15 22 26 25 22 29 27 25 26 25 26 26 23 22 22 20 16 13 12 12 13 13 12 11 10 10 10 9 10
11 14 21 22 28 30 30 26 31 32 28 27 27 26 24 23 22 21 19 17 16 15 14 14 14 14 14 13 12 11 9 9
19 21 28 27 31 31 31 31 35 34 31 28 29 28 26 25 23 21 20 18 17 17 16 16 15 15 15 14 11 11 10 8
29 28 32 32 35 35 35 38 39 36 33 32 30 29 26 25 24 22 21 20 19 18 18 18 16 16 15 14 13 12 10 8
11 15 30 30 39 39 38 39 41 38 36 34 30 29 25 25 24 22 22 21 21 20 20 19 18 18 17 15 14 13 10 10
16 16 19 30 37 42 42 42 42 41 38 35 31 30 28 27 25 24 24 23 23 23 22 21 21 20 19 17 14 12 11 10
13 16 24 25 30 37 40 41 41 40 38 36 33 30 29 28 25 26 26 25 25 25 23 22 21 19 18 17 13 12 11 9
15 5 9 16 20 27 30 36 38 38 37 35 32 30 30 29 28 27 28 27 25 25 24 22 21 20 19 16 14 13 13 11
Wind_Direction
179 175 175 178 190 200 202 198 192 192 196 195 193 195 204 214 202 185 182 190 208 202 190 215 224 234 253 244 199 242 278 323
168 165 174 179 187 192 195 202 201 204 201 202 197 197 203 207 198 187 181 182 193 211 181 214 236 214 276 73 150 214 271 334
163 168 176 183 182 192 195 205 210 208 204 189 195 195 201 199 192 181 173 174 179 197 191 195 237 272 225 209 162 192 276 339
166 169 175 179 183 190 198 205 206 183 183 188 185 196 202 207 193 180 168 173 177 182 201 208 205 241 251 115 136 186 212 346
163 168 172 180 188 193 202 202 194 180 206 197 205 219 212 202 181 177 178 180 181 183 189 208 201 132 40 42 44 250 248 151
166 173 179 184 186 189 199 195 181 190 201 209 217 190 197 201 203 226 195 178 182 189 197 193 217 167 86 88 132 162 20 50
173 177 179 183 187 189 190 192 189 195 209 201 196 200 192 197 223 226 197 182 187 197 192 189 193 203 161 106 114 111 121 95
174 175 179 183 189 187 184 189 189 199 201 189 197 209 215 220 220 220 222 209 200 206 190 176 175 164 143 122 113 109 123 114
175 181 183 180 184 186 186 189 196 203 205 198 197 213 215 207 213 219 224 215 214 210 205 189 174 157 137 126 116 111 112 124
178 180 181 183 191 194 196 203 206 208 213 207 204 209 213 207 211 218 222 223 221 215 199 183 163 152 141 136 129 122 118 123
118 179 185 200 202 202 205 211 209 212 217 215 209 203 206 209 210 213 215 217 217 207 189 172 162 154 149 148 144 139 129 124
54 152 186 219 219 212 216 216 212 218 218 210 207 203 207 211 213 212 214 213 207 202 186 175 169 169 162 156 157 149 150 141
252 236 209 219 225 221 223 217 211 216 217 218 214 210 213 214 211 208 210 210 206 197 186 180 174 171 168 166 169 166 172 158
228 225 217 221 220 226 231 221 213 213 214 219 217 214 213 213 210 210 209 205 200 193 190 186 182 179 179 180 181 182 185 163
248 235 235 232 228 233 227 218 215 213 212 215 218 217 216 213 210 207 207 203 201 195 191 189 187 183 181 183 184 188 185 170
255 286 258 236 224 222 221 217 212 215 213 215 220 219 218 215 211 206 205 202 200 199 195 192 190 187 185 186 188 190 184 178
320 288 253 236 229 219 218 216 214 213 215 217 218 216 215 214 212 207 205 202 200 202 201 200 196 192 193 199 201 195 194 184
326 322 301 257 238 218 215 216 213 214 215 214 217 216 214 214 212 207 205 205 205 207 209 204 200 197 201 202 200 202 202 204
323 20 324 269 227 226 221 221 220 216 216 219 220 217 215 214 213 210 208 209 211 212 209 204 201 201 205 205 197 198 201 202